Theta_e
287 286 286 286 285 285 285 286 285 285 287 287 288 289 289 289 289 290 290 291 291 292 292 292 293 293 294
286 286 285 285 285 285 285 285 284 284 285 286 286 287 287 288 289 289 289 290 290 290 290 291 292 292 292
286 286 286 285 284 285 284 284 284 284 284 285 285 286 287 287 287 288 288 288 288 289 289 290 291 291 292
286 286 285 285 285 285 284 284 284 284 284 285 285 285 285 285 285 285 286 286 287 288 289 289 290 290 291
286 285 285 285 284 284 284 283 284 284 285 285 284 284 285 285 285 286 286 286 288 288 288 289 290 290 291
286 285 284 284 283 283 283 284 284 284 284 284 284 284 285 285 285 285 286 285 287 287 288 289 290 290 290
285 284 283 283 283 284 284 285 284 284 283 282 285 285 285 285 285 286 286 285 286 287 288 289 290 290 291
284 284 283 284 284 284 284 283 283 284 284 282 284 284 284 284 285 286 286 286 286 287 287 287 288 289 290
283 283 283 283 283 283 282 282 282 284 284 282 283 282 283 285 285 285 285 285 285 286 286 286 287 288 290
283 283 283 284 284 283 283 282 282 281 283 282 281 281 281 282 284 285 286 286 286 286 287 287 288 288 288
283 284 284 284 285 285 284 283 282 281 284 282 281 281 281 281 283 285 286 286 286 287 287 288 289 288 289
283 284 284 285 285 285 284 284 284 283 285 285 282 282 281 281 282 285 285 286 286 287 287 288 288 288 289
283 284 284 284 284 285 285 285 285 285 286 285 284 284 282 282 282 283 284 286 287 287 286 287 287 288 289
284 284 284 285 285 285 285 285 285 286 286 286 285 284 283 283 283 283 285 283 286 286 286 286 287 288 288
285 285 285 284 285 285 285 284 283 285 286 286 286 285 285 284 284 285 285 286 286 286 286 286 288 289 289
285 285 285 285 285 285 284 284 284 285 285 285 285 285 285 285 284 285 285 286 286 287 287 286 286 289 288
285 285 285 285 284 284 285 284 285 285 285 285 285 285 284 283 285 285 286 286 287 287 287 287 286 289 289
Wind_Speed
35 37 37 37 36 34 32 31 33 32 31 31 29 29 32 32 33 33 34 33 34 33 34 34 34 34 34
36 35 36 35 37 32 31 33 34 34 30 28 32 31 33 32 31 32 32 32 33 34 36 35 35 34 33
37 35 37 39 38 37 39 38 37 37 34 33 32 32 29 30 31 29 31 33 32 32 32 32 32 32 32
33 36 38 39 35 40 42 41 42 42 38 35 31 33 35 32 29 29 29 29 29 29 30 32 33 33 32
33 37 34 35 39 38 41 45 46 41 40 32 39 42 38 31 30 29 29 29 31 33 32 32 32 31 30
33 34 38 38 39 38 41 44 45 38 31 44 43 42 36 36 34 33 33 31 30 32 32 29 29 29 28
36 36 35 37 37 38 37 37 38 44 46 43 40 43 41 38 38 34 28 26 27 27 25 25 27 28 29
31 33 33 31 32 34 35 37 41 40 38 39 43 41 41 41 35 27 21 24 24 25 30 29 28 28 29
28 26 26 28 25 26 31 33 39 41 38 36 37 43 44 40 32 27 33 31 31 27 24 26 28 28 30
30 31 27 24 22 24 28 31 35 39 35 34 40 38 30 34 34 37 38 34 30 27 24 23 22 25 27
30 28 26 25 26 27 27 28 32 35 35 33 38 38 30 41 45 43 40 37 35 30 25 22 18 22 27
27 28 28 30 30 29 27 28 28 31 31 29 32 33 35 40 45 45 41 37 35 32 23 22 26 27 28
27 27 29 31 31 30 28 29 29 29 29 29 28 29 30 36 41 42 42 40 28 27 33 30 31 31 33
26 29 30 30 31 29 31 32 35 33 29 29 27 28 32 34 36 42 38 37 36 35 33 36 35 33 34
28 29 31 31 29 29 33 35 34 35 35 30 28 29 30 33 36 35 35 36 37 37 37 40 37 35 35
27 29 31 32 34 34 32 32 34 34 35 33 34 35 37 37 27 31 36 39 38 36 34 36 41 37 36
28 31 32 35 34 34 33 33 34 34 34 36 36 35 38 38 38 27 30 35 32 35 34 35 38 41 36
Wind_Direction
302 306 309 311 313 311 311 310 308 309 306 300 300 297 295 292 293 291 291 290 287 285 283 280 278 275 272
306 311 315 317 316 315 316 316 315 313 306 300 297 297 293 295 294 292 291 288 287 283 281 280 277 276 273
312 316 316 317 321 320 321 319 316 315 308 307 304 302 300 296 293 290 287 286 284 284 283 280 279 277 273
309 311 315 317 316 315 317 316 314 316 314 310 309 312 307 306 300 302 298 291 288 286 284 282 280 277 274
308 311 313 312 316 316 310 313 315 316 316 315 313 314 312 310 309 306 304 298 291 286 284 282 279 276 274
306 306 308 311 311 311 309 310 310 315 309 305 312 312 313 315 314 311 304 295 291 288 286 283 280 277 274
302 306 308 308 308 307 310 310 301 300 306 304 313 312 315 313 312 313 307 296 293 290 287 286 283 279 275
307 305 305 308 305 303 301 296 296 302 310 301 313 312 315 313 316 315 312 310 298 292 287 285 283 280 279
308 303 304 304 302 302 301 306 307 310 313 309 316 314 314 314 322 322 320 314 308 301 288 285 284 282 277
309 310 311 310 313 313 313 309 310 308 313 309 311 316 314 311 313 316 317 317 316 311 299 291 282 281 279
308 313 316 318 319 318 315 313 308 301 311 308 305 307 295 301 309 312 316 317 316 312 302 290 280 287 284
315 318 323 324 322 321 318 314 309 307 316 315 305 306 304 302 303 311 314 313 314 312 311 300 293 290 288
320 321 322 322 322 324 322 322 317 317 323 323 315 312 306 303 302 307 312 313 311 310 311 306 303 299 299
322 323 324 326 325 325 324 327 322 321 328 329 325 319 312 308 306 303 308 294 311 311 313 309 303 298 296
329 329 330 329 329 330 327 327 324 324 324 329 328 322 317 314 307 307 308 307 312 311 308 303 299 300 300
332 333 332 332 331 332 331 329 327 327 324 329 330 327 326 320 309 304 305 305 309 309 306 300 303 304 301
337 337 335 334 334 333 334 332 329 328 328 330 329 326 313 305 319 306 294 305 310 312 311 303 292 299 303